Preview of NWS' New Version of Forecast
This preview is not operational and should not be used for support decisions.

Regional Weather Roundup (RWR)

Issued by National Weather Service (NWS)

                            
000
ASUS46 KSEW 171310
RWRWA 

WASHINGTON REGIONAL WEATHER ROUNDUP
NATIONAL WEATHER SERVICE SEATTLE WA
600 AM PDT MON JUN 17 2019

NOTE:"FAIR" INDICATES FEW OR NO CLOUDS BELOW 12,000 FEET WITH NO 
SIGNIFICANT WEATHER AND/OR OBSTRUCTIONS TO VISIBILITY.

WAZ507-509-555>559-171400-
SEATTLE, TACOMA, EVERETT, AND VICINITY
  
CITY           SKY/WX    TMP DP  RH WIND       PRES   REMARKS
EVERETT        CLOUDY    54  52  93 N3        30.11R                  
BOEING FIELD   CLOUDY    57  52  83 SW6       30.10R                  
RENTON         CLOUDY    59  54  83 SW5       30.10R                  
SEATAC AIRPORT CLOUDY    56  52  86 SW7       30.11R                  
JBLM-MCCHORD   NOT AVBL                                               
PUYALLUP       CLOUDY    55  55 100 CALM      30.11S                  
BREMERTON      CLOUDY    54  53  97 S5        30.11S                  
JBLM-FT LEWIS  NOT AVBL                                               
TACOMA NARROWS CLOUDY    54  52  93 SW3       30.12R                  
$$
 
WAZ001-503-506-510-514-515-171400-
NORTH INTERIOR
  
CITY           SKY/WX    TMP DP  RH WIND       PRES   REMARKS
BELLINGHAM     MOCLDY    57  51  80 S9        30.06R                  
FRIDAY HARBOR  PTCLDY    57  48  72 CALM      30.08R                  
EASTSOUND      CLOUDY    55  52  88 S10       30.05R                  
PORT ANGELES   MOCLDY    51  50  96 W6        30.10S                  
EDIZ HOOK      CLOUDY    52  51  97 W14G21    30.10R FOG              
PORT TOWNSEND  FOG       52  52 100 CALM      30.10R VSB 1/4          
NAS WHIDBEY    MOCLDY    56  50  80 VRB7      30.14R                  
ARLINGTON      PTCLDY    54  51  90 N8        30.11R                  
BURLINGTON     CLOUDY    54  52  94 S6        30.10S                  
$$
 
WAZ020-022-039-040-504-511-512-171400-
SOUTHWEST INTERIOR
  
CITY           SKY/WX    TMP DP  RH WIND       PRES   REMARKS
SHELTON        CLOUDY    54  51  90 SW3       30.09R                  
OLYMPIA        CLOUDY    54  51  90 SW5       30.12R                  
CHEHALIS       CLOUDY    55  54  94 CALM      30.12R                  
KELSO          CLOUDY    57  52  83 NW5       30.13R                  
VANCOUVER      CLOUDY    58  51  78 CALM      30.11R                  
SCAPPOOSE, OR  CLOUDY    54  52  93 CALM      30.11R                  
PORTLAND, OR   CLOUDY    59  51  75 N3        30.12R                  
$$
 
WAZ021-516-517-171400-
WASHINGTON COAST
  
CITY           SKY/WX    TMP DP  RH WIND       PRES   REMARKS
FORKS          CLOUDY    53  52  96 CALM      30.13R FOG              
HOQUIAM        CLOUDY    52  52 100 W7        30.13R FOG              
ASTORIA, OR    CLOUDY    54  52  93 W6        30.14R                  
$$
 
WAZ019-023-024-040-567>569-171400-
CASCADE MOUNTAINS AND COLUMBIA GORGE
  
CITY           SKY/WX    TMP DP  RH WIND       PRES   REMARKS
STAMPEDE PASS  FOG       48  46  93 SW6       30.11S VSB<1/4          
TROUTDALE, OR  CLOUDY    59  52  77 CALM      30.11R                  
HOOD RIVER, OR SUNNY     63  50  63 CALM      30.01R                  
THE DALLES, OR CLEAR     63  52  67 NW22G29   29.96R                  
$$

WAZ026-027-041>044-520-521-171400-
EAST SLOPES
  
CITY           SKY/WX    TMP DP  RH WIND       PRES   REMARKS
OMAK           CLEAR     63  50  62 NW12      29.94R                  
WENATCHEE      PTCLDY    66  47  50 W6        29.95R                  
ELLENSBURG     CLEAR     62  48  60 NW20G25   29.97R                  
YAKIMA         CLEAR     67  45  45 NW14      29.95R                  
SUNNYSIDE ARPT SUNNY     56  51  82 CALM      29.93                   
YAKIMA TC      NOT AVBL                                               
$$

WAZ028-034-035-171400-
COLUMBIA BASIN
  
CITY           SKY/WX    TMP DP  RH WIND       PRES   REMARKS
EPHRATA        CLEAR     68  48  48 NW14      29.90R                  
MOSES LAKE     CLEAR     67  49  52 W6        29.92R                  
PASCO          CLEAR     66  53  63 SW9       29.92R                  
RICHLAND ARPT  SUNNY     66  49  55 MISG      29.92R                  
HERMISTON, OR  CLEAR     66  49  54 SW9       29.94R                  
$$

WAZ036>038-171400-
NORTHEAST WASHINGTON
  
CITY           SKY/WX    TMP DP  RH WIND       PRES   REMARKS
SPOKANE GEIGER PTCLDY    60  49  66 S7        29.95R                  
SPOKANE FELTS  PTCLDY    61  54  77 NE3       29.95R                  
FAIRCHILD AFB  NOT AVBL                                               
COEURDALENE,ID MOCLDY    62  55  77 S8        29.96R                  
DEER PARK      MOCLDY    58  51  78 CALM      29.96R                  
$$

WAZ029>033-171400-
SOUTHEAST WASHINGTON
  
CITY           SKY/WX    TMP DP  RH WIND       PRES   REMARKS
PULLMAN        PTCLDY    57  49  74 CALM      29.99R                  
LEWISTON, ID   PTCLDY    62  52  69 CALM      29.94R                  
WALLA WALLA    CLEAR     65  49  56 S9        29.96R                  
PENDLETON, OR  CLEAR     59  48  67 SE6       29.97R                  
$$